カタログに戻る

BREEZE-KM R/B

運用中PO
NORAD 38737·ROCKET BODY·🇷🇺 Russia

打ち上げ Jul 28, 2012 から Plesetsk Cosmodrome

Loading…

次のパス (今後24時間)

TLE

最新Source: Space-Track

元期: Sep 14, 2026, 22:25 UTC

1 38737U 12041E   26257.93437252  .00000021  00000-0  33298-4 0  9995
2 38737  82.4783 134.5810 0226220  46.4549 315.5098 12.81849470661299

AllMySatでBREEZE-KM R/Bをリアルタイム追跡

Download on the App Store